When you browse on this site, cookies collect data to enhance your experience and personalize the content and advertising you see.
Visit our Privacy Policy to learn more. By continuing to use the site, you agree to this use of cookies and data.
  • In Hungary
  • List of Countries
  • For 7 days
  • Water Temperature
  • Weather Map
  • News
  • Weather Widgets
  • user-avatar
    Login

    Hourly Weather Vestby

    Today, 24 August, Saturday

    Time Temperature Precipitation Wind Pressure Humidity
    00:00 +15°C° 0 mm 1 mps 756 mmHg 81%
    01:00 +14°C° 0 mm 1 mps 756 mmHg 84%
    02:00 +14°C° 0 mm 1 mps 757 mmHg 85%
    03:00 +13°C° 0 mm 1 mps 757 mmHg 85%
    04:00 +13°C° 0 mm 1 mps 757 mmHg 86%
    05:00 +14°C° 0 mm 1 mps 757 mmHg 83%
    06:00 +14°C° 0 mm 1 mps 758 mmHg 80%
    07:00 +15°C° 0 mm 1 mps 758 mmHg 77%
    08:00 +18°C° 0 mm 1 mps 758 mmHg 70%
    09:00 +20°C° 0 mm 1 mps 758 mmHg 63%
    10:00 +21°C° 0 mm 1 mps 759 mmHg 57%
    11:00 +22°C° 0 mm 1 mps 759 mmHg 54%
    12:00 +24°C° 0 mm 1 mps 759 mmHg 52%
    13:00 +25°C° 0 mm 1 mps 759 mmHg 50%
    14:00 +24°C° 0 mm 2 mps 759 mmHg 52%
    15:00 +24°C° 0 mm 2 mps 759 mmHg 55%
    16:00 +24°C° 0 mm 3 mps 759 mmHg 57%
    17:00 +21°C° 0 mm 2 mps 758 mmHg 65%
    18:00 +19°C° 0 mm 2 mps 758 mmHg 72%
    19:00 +18°C° 0 mm 2 mps 758 mmHg 80%
    20:00 +17°C° 0 mm 2 mps 758 mmHg 85%
    21:00 +16°C° 0 mm 2 mps 759 mmHg 91%
    22:00 +15°C° 0 mm 2 mps 759 mmHg 97%
    23:00 +15°C° 0 mm 2 mps 759 mmHg 97%

    Tomorrow, 25 August, Sunday

    Time Temperature Precipitation Wind Pressure Humidity
    00:00 +15°C° 0 mm 2 mps 759 mmHg 97%
    01:00 +15°C° 0 mm 2 mps 759 mmHg 97%
    02:00 +15°C° 0 mm 2 mps 759 mmHg 96%
    03:00 +15°C° 0 mm 2 mps 759 mmHg 95%
    04:00 +15°C° 0 mm 2 mps 759 mmHg 95%
    05:00 +16°C° 0 mm 2 mps 759 mmHg 92%
    06:00 +17°C° 0 mm 2 mps 759 mmHg 88%
    07:00 +17°C° 0 mm 3 mps 758 mmHg 85%
    08:00 +19°C° 0 mm 3 mps 758 mmHg 78%
    09:00 +20°C° 0 mm 4 mps 759 mmHg 72%
    10:00 +22°C° 0 mm 4 mps 759 mmHg 65%
    11:00 +22°C° 0 mm 4 mps 758 mmHg 63%
    12:00 +23°C° 0 mm 4 mps 758 mmHg 60%
    13:00 +23°C° 0 mm 4 mps 758 mmHg 57%
    14:00 +23°C° 0 mm 4 mps 758 mmHg 59%
    15:00 +23°C° 0 mm 4 mps 758 mmHg 60%
    16:00 +23°C° 0 mm 4 mps 757 mmHg 61%
    17:00 +21°C° 0 mm 3 mps 757 mmHg 67%
    18:00 +20°C° 0 mm 3 mps 757 mmHg 74%
    19:00 +18°C° 0 mm 3 mps 757 mmHg 80%
    20:00 +17°C° 0 mm 2 mps 757 mmHg 85%
    21:00 +16°C° 0 mm 2 mps 758 mmHg 90%
    22:00 +15°C° 0 mm 2 mps 758 mmHg 94%
    23:00 +15°C° 0 mm 2 mps 758 mmHg 95%

    Day after tomorrow, 26 August, Monday

    Time Temperature Precipitation Wind Pressure Humidity
    00:00 +15°C° 0 mm 2 mps 758 mmHg 95%
    01:00 +15°C° 0 mm 1 mps 758 mmHg 95%
    02:00 +14°C° 0 mm 1 mps 758 mmHg 95%
    03:00 +14°C° 0 mm 1 mps 758 mmHg 95%
    04:00 +14°C° 0 mm 1 mps 758 mmHg 96%
    05:00 +15°C° 0 mm 1 mps 758 mmHg 93%
    06:00 +16°C° 0 mm 1 mps 758 mmHg 90%
    07:00 +18°C° 0 mm 1 mps 758 mmHg 86%
    08:00 +19°C° 0 mm 1 mps 758 mmHg 78%
    09:00 +20°C° 0 mm 2 mps 758 mmHg 70%
    10:00 +23°C° 0 mm 2 mps 758 mmHg 62%
    11:00 +24°C° 0 mm 2 mps 758 mmHg 59%
    12:00 +25°C° 0 mm 3 mps 758 mmHg 55%
    13:00 +26°C° 0 mm 3 mps 757 mmHg 52%
    14:00 +25°C° 0 mm 3 mps 757 mmHg 54%
    15:00 +25°C° 0 mm 3 mps 757 mmHg 55%
    16:00 +25°C° 0 mm 3 mps 757 mmHg 57%
    17:00 +22°C° 0 mm 3 mps 757 mmHg 63%
    18:00 +20°C° 0 mm 2 mps 757 mmHg 70%
    19:00 +19°C° 0 mm 2 mps 757 mmHg 76%
    20:00 +18°C° 0 mm 1 mps 757 mmHg 80%
    21:00 +16°C° 0 mm 1 mps 758 mmHg 84%
    22:00 +15°C° 0 mm 1 mps 758 mmHg 87%
    23:00 +15°C° 0 mm 1 mps 758 mmHg 89%

    27 August, Tuesday

    Time Temperature Precipitation Wind Pressure Humidity
    00:00 +14°C° 0 mm 1 mps 758 mmHg 90%
    01:00 +13°C° 0 mm 0 mps 758 mmHg 92%
    02:00 +13°C° 0 mm 0 mps 758 mmHg 92%
    03:00 +12°C° 0 mm 0 mps 758 mmHg 93%
    04:00 +12°C° 0 mm 0 mps 758 mmHg 93%
    05:00 +13°C° 0 mm 0 mps 758 mmHg 90%
    06:00 +14°C° 0 mm 0 mps 758 mmHg 86%
    07:00 +15°C° 0 mm 0 mps 758 mmHg 82%
    08:00 +17°C° 0 mm 0 mps 758 mmHg 73%
    09:00 +22°C° 0 mm 1 mps 758 mmHg 64%
    10:00 +24°C° 0 mm 1 mps 758 mmHg 55%
    11:00 +25°C° 0 mm 1 mps 758 mmHg 52%
    12:00 +26°C° 0 mm 2 mps 758 mmHg 50%
    13:00 +26°C° 0 mm 2 mps 757 mmHg 47%
    14:00 +26°C° 0 mm 2 mps 757 mmHg 48%
    15:00 +26°C° 0 mm 2 mps 757 mmHg 48%
    16:00 +26°C° 0 mm 2 mps 756 mmHg 49%
    17:00 +25°C° 0 mm 1 mps 756 mmHg 56%
    18:00 +23°C° 0 mm 1 mps 756 mmHg 64%
    19:00 +19°C° 0 mm 0 mps 756 mmHg 71%
    20:00 +18°C° 0 mm 0 mps 756 mmHg 74%
    21:00 +17°C° 0 mm 0 mps 756 mmHg 78%
    22:00 +16°C° 0 mm 0 mps 756 mmHg 81%
    23:00 +16°C° 0 mm 0 mps 756 mmHg 82%

    28 August, Wednesday

    Time Temperature Precipitation Wind Pressure Humidity
    00:00 +15°C° 0 mm 0 mps 756 mmHg 82%
    01:00 +15°C° 0 mm 0 mps 755 mmHg 83%
    02:00 +15°C° 0 mm 0 mps 755 mmHg 84%
    03:00 +14°C° 0 mm 0 mps 755 mmHg 86%
    04:00 +14°C° 0 mm 0 mps 755 mmHg 88%
    05:00 +16°C° 0 mm 1 mps 755 mmHg 86%
    06:00 +18°C° 0 mm 1 mps 754 mmHg 84%
    07:00 +19°C° 0 mm 1 mps 754 mmHg 82%
    08:00 +20°C° 0 mm 1 mps 754 mmHg 76%
    09:00 +22°C° 0 mm 1 mps 754 mmHg 71%
    10:00 +24°C° 0 mm 1 mps 754 mmHg 65%
    11:00 +25°C° 0 mm 1 mps 753 mmHg 63%
    12:00 +26°C° 0 mm 2 mps 753 mmHg 61%
    13:00 +27°C° 0 mm 2 mps 752 mmHg 59%
    14:00 +27°C° 0.1 mm 2 mps 752 mmHg 60%
    15:00 +27°C° 0.1 mm 2 mps 752 mmHg 61%
    16:00 +27°C° 0.1 mm 2 mps 751 mmHg 62%
    17:00 +25°C° 0.6 mm 1 mps 751 mmHg 71%
    18:00 +23°C° 0.6 mm 1 mps 751 mmHg 80%
    19:00 +22°C° 0.6 mm 1 mps 750 mmHg 89%
    20:00 +21°C° 0.1 mm 1 mps 750 mmHg 92%
    21:00 +20°C° 0.1 mm 1 mps 750 mmHg 94%
    22:00 +19°C° 0.1 mm 1 mps 750 mmHg 97%
    23:00 +19°C° 0.3 mm 1 mps 750 mmHg 97%

    29 August, Thursday

    Time Temperature Precipitation Wind Pressure Humidity
    00:00 +19°C° 0.3 mm 1 mps 750 mmHg 98%
    01:00 +19°C° 0.3 mm 1 mps 750 mmHg 98%
    02:00 +19°C° 0 mm 1 mps 750 mmHg 98%
    03:00 +19°C° 0 mm 1 mps 750 mmHg 98%
    04:00 +19°C° 0 mm 1 mps 750 mmHg 98%
    05:00 +19°C° 0 mm 1 mps 750 mmHg 97%
    06:00 +20°C° 0 mm 1 mps 750 mmHg 96%
    07:00 +19°C° 0 mm 2 mps 750 mmHg 95%
    08:00 +20°C° 0 mm 2 mps 750 mmHg 91%
    09:00 +20°C° 0 mm 2 mps 750 mmHg 87%
    10:00 +21°C° 0 mm 3 mps 750 mmHg 83%
    11:00 +22°C° 0 mm 3 mps 750 mmHg 78%
    12:00 +24°C° 0 mm 3 mps 750 mmHg 72%
    13:00 +25°C° 0 mm 4 mps 750 mmHg 66%
    14:00 +23°C° 0 mm 4 mps 750 mmHg 66%
    15:00 +23°C° 0 mm 4 mps 750 mmHg 66%
    16:00 +23°C° 0 mm 4 mps 750 mmHg 65%
    17:00 +21°C° 0 mm 4 mps 750 mmHg 71%
    18:00 +20°C° 0 mm 4 mps 751 mmHg 76%
    19:00 +19°C° 0 mm 3 mps 751 mmHg 82%
    20:00 +18°C° 0 mm 3 mps 751 mmHg 87%
    21:00 +17°C° 0 mm 3 mps 751 mmHg 91%
    22:00 +16°C° 0 mm 3 mps 751 mmHg 96%
    23:00 +16°C° 0 mm 3 mps 751 mmHg 96%
    Show more